Location: Mt. Bigelow
(32.4165°N, 110.7345°W)
Time: 17:22:46
(UTC-07:00)

Tiangong 2 - Visible Passes

Search period start: 17 June 2018 00:00
Search period end: 27 June 2018 00:00
Orbit: 292 x 298 km, 42.8° (Epoch: 17 June)

Date Brightness Start Highest point End Pass type
(mag) Time Alt. Az. Time Alt. Az. Time Alt. Az.
23 Jun 2.3 04:30:01 10° SSW 04:32:04 23° SE 04:34:12 10° E visible
24 Jun 0.6 04:35:49 12° SW 04:38:03 64° SSE 04:40:35 10° ENE visible
25 Jun 1.2 04:41:37 10° WSW 04:44:04 46° NNW 04:46:32 10° NE visible
26 Jun 3.1 03:16:43 18° E 03:16:43 18° E 03:17:40 10° E visible
